[[{"header":{"parameterUnit":"m.s-1","parameterCategory":1,"la1":30.2991,"la2":30.254,"lo1":-89.0895,"lo2":-89.0444,"dy":0.0017,"dx":0.0017,"nx":28,"ny":28,"refTime":"2024-06-07T03:00:00:Z","depth":0,"parameterNumber":2,"parameterNumberName":"U-component_of_WINDS"},"data":[0,0,0,0,0,0,0,0,0,0,0,0,0,0,0,0,0,0,0,0,0,0,0,0,0,0,0,0,0,0,0,0,0,0,0,0,0,0,0,0,0,0,0,0,0,0,0,0,0,0,0,0,0,0,0,0,0,0,0.7207,0.7208,0,0.7338,0.7339,0.7341,0.7352,0.735,0.7349,0.7347,0.7489,0.7494,0.7499,0,0,0,0,0,0,0,0,0,0,0,0,0,0.6972,0.6976,0.7207,0.7208,0.721,0.7337,0.7339,0.7341,0.7352,0.735,0.7348,0.7347,0.7487,0.7493,0.7499,0,0,0,0,0,0,0,0,0,0,0,0,0,0.7085,0.6977,0.7206,0.7231,0.7234,0.7337,0.7339,0.7341,0.7352,0.735,0.7348,0.7346,0.7485,0.7492,0.75,0.759,0,0,0.7523,0.7527,0,0,0,0,0,0,0,0,0.7079,0.7094,0.7225,0.7229,0.7233,0.7326,0.7308,0.7425,0.7353,0.7308,0.7347,0.7345,0.7437,0.7448,0.7478,0.7597,0.7603,0.7524,0.7529,0.7532,0.7534,0,0,0,0,0,0,0,0.7071,0.7089,0.7259,0.7227,0.7232,0.7237,0.725,0.733,0.7383,0.7311,0.7312,0.7327,0.7439,0.747,0.7481,0.7605,0.7524,0.7531,0.7535,0.7538,0.7803,0.7805,0,0,0,0,0,0,0.7058,0.7082,0.7254,0.7263,0.7149,0.7243,0.7258,0.7298,0.7382,0.7392,0.7329,0.7327,0.7458,0.7472,0.7486,0.7596,0.7532,0.7539,0.7543,0.7801,0.7804,0.7806,0,0,0,0,0,0,0.7053,0.7073,0.7249,0.7173,0.7195,0.7249,0.7294,0.7302,0.7334,0.7395,0.7405,0.7351,0.7457,0.7475,0.7563,0.7601,0.7542,0.7549,0.7798,0.7802,0.7805,0.7818,0,0,0,0,0,0,0.7046,0.7071,0.7105,0.7173,0.7199,0.7323,0.7297,0.7306,0.7346,0.7345,0.7419,0.7429,0.7457,0.7552,0.7571,0.7611,0.7555,0.7795,0.7799,0.7804,0.7814,0.7821,0.7827,0,0,0,0,0,0.7037,0.7105,0.7106,0.7127,0.7242,0.7325,0.734,0.7368,0.7349,0.7384,0.7423,0.7427,0.7594,0.7561,0.7582,0.7625,0.7792,0.7798,0.7803,0.7811,0.782,0.7827,0,0,0,0,0,0,0.7043,0.7114,0.7117,0.7208,0.726,0.7326,0.7371,0.7377,0.7437,0.7434,0.7469,0.7486,0.7572,0.7608,0.7569,0.7716,0.7691,0.7701,0.769,0.7699,0.7705,0.7695,0.7562,0,0,0,0,0,0.7054,0.7113,0.7173,0.7248,0.7274,0.7318,0.7355,0.7372,0.7428,0.7451,0.7497,0.7553,0.7618,0.766,0.7724,0.7819,0.7835,0.7859,0.7866,0.7871,0.7879,0.7932,0.7943,0.7824,0.7824,0.7824,0,0,0.7079,0.7125,0.7161,0.725,0.7292,0.7354,0.7336,0.7403,0.745,0.7462,0.7547,0.7582,0.7647,0.7739,0.7782,0.7771,0.7916,0.7878,0.7881,0.7888,0.7939,0.795,0.796,0.7828,0.7827,0.7827,0,0,0.7156,0.7196,0.7262,0.7304,0.7367,0.7396,0.7411,0.7477,0.75,0.7585,0.7595,0.7652,0.7763,0.7809,0.7847,0.7938,0.7944,0.7958,0.7993,0.8044,0.8054,0.8062,0.8095,0.8106,0.7966,0.7966,0.7966,0,0.7179,0.7271,0.7297,0.7362,0.7401,0.7412,0.7479,0.752,0.7601,0.7629,0.7615,0.7753,0.7798,0.79,0.7922,0.7952,0.7972,0.795,0.805,0.8058,0.8067,0.8098,0.8111,0.7968,0.7967,0.7967,0.7967,0,0.7297,0.736,0.7406,0.7481,0.7526,0.7592,0.7629,0.7671,0.7684,0.7714,0.7801,0.7854,0.7928,0.7954,0.7968,0.8058,0.8049,0.8042,0.8018,0.8079,0.8109,0.8122,0.7969,0.7969,0.7969,0.7968,0,0,0.7382,0.7468,0.7485,0.7518,0.7588,0.7638,0.7705,0.7775,0.781,0.7866,0.7923,0.8016,0.8009,0.8052,0.8072,0.8116,0.8185,0.8104,0.8106,0.8117,0.8287,0.8292,0.8305,0.8188,0.8191,0.8193,0.8281,0,0.7467,0.7584,0.7608,0.771,0.7769,0.7779,0.7838,0.7887,0.7917,0.7973,0.8007,0.8072,0.8058,0.8084,0.8128,0.8167,0.8219,0.8161,0.8244,0.8247,0.8228,0.8321,0.8327,0.8408,0.8293,0.8295,0.8297,0,0.7582,0.7636,0.7743,0.7803,0.7829,0.7881,0.7945,0.7998,0.8055,0.8074,0.812,0.8134,0.8205,0.8177,0.8276,0.8236,0.8271,0.8295,0.8299,0.8309,0.8276,0.8333,0.8435,0.8447,0.8316,0.8314,0.8313,0,0.7633,0.7734,0.781,0.7839,0.7911,0.7947,0.7979,0.8033,0.8073,0.813,0.8156,0.8222,0.8258,0.831,0.8342,0.8318,0.8439,0.8413,0.8457,0.8457,0.8483,0.8481,0.8592,0.8505,0.8505,0.8505,0.8505,0,0.7725,0.779,0.7834,0.7881,0.7955,0.7982,0.8055,0.8087,0.8135,0.819,0.8203,0.8255,0.8293,0.8351,0.8377,0.8455,0.8472,0.849,0.8496,0.8489,0.8486,0.8513,0.8509,0.8508,0.8508,0.8507,0.8506,0,0.7795,0.7827,0.7911,0.7971,0.7987,0.8039,0.8091,0.8138,0.8167,0.8236,0.8254,0.8301,0.8369,0.8405,0.8492,0.8509,0.8597,0.86,0.8577,0.858,0.8622,0.8618,0.8754,0.8774,0.8674,0.8674,0.8675,0,0.7851,0.7901,0.7965,0.8002,0.8033,0.8092,0.8132,0.8161,0.8202,0.8269,0.8308,0.8376,0.8432,0.8541,0.8584,0.865,0.8655,0.8698,0.8665,0.8656,0.8656,0.8653,0.8658,0.8704,0.8705,0.8706,0.8707,0,0.7949,0.7961,0.8017,0.8077,0.8123,0.8173,0.8223,0.8252,0.8289,0.8335,0.8403,0.8446,0.8533,0.8601,0.8669,0.8704,0.8713,0.8716,0.873,0.8724,0.8708,0.8717,0.8593,0.8713,0.8713,0.8712,0.8712,0.8712,0.8014,0.8058,0.811,0.8171,0.821,0.8255,0.8302,0.8335,0.8392,0.8463,0.8477,0.8549,0.8604,0.8697,0.8733,0.8792,0.8783,0.8803,0.8809,0.8813,0.8815,0.8698,0.8804,0.8804,0.8804,0.8804,0.8804,0,0.8112,0.8145,0.82,0.8267,0.8315,0.8315,0.8369,0.841,0.8473,0.8522,0.8576,0.8654,0.872,0.8766,0.8834,0.8871,0.8876,0.8888,0.8886,0.8894,0.8818,0.88,0.8882,0.8882,0.8882,0.8882,0.8882,0.8882,0.8168,0.8243,0.8261,0.8356,0.8389,0.8458,0.8489,0.8531,0.857,0.8656,0.8709,0.8738,0.8787,0.8857,0.8918,0.893,0.8954,0.8965,0.8978,0.8907,0.8899,0.8891,0.8874,0.897,0.8971,0.9049,0.9049,0.905]},{"header":{"parameterUnit":"m.s-1","parameterCategory":1,"la1":30.2991,"la2":30.254,"lo1":-89.0895,"lo2":-89.0444,"dy":0.0017,"dx":0.0017,"nx":28,"ny":28,"refTime":"2024-06-07T03:00:00:Z","depth":0,"parameterNumber":3,"parameterNumberName":"V-component_of_WINDS"},"data":[0,0,0,0,0,0,0,0,0,0,0,0,0,0,0,0,0,0,0,0,0,0,0,0,0,0,0,0,0,0,0,0,0,0,0,0,0,0,0,0,0,0,0,0,0,0,0,0,0,0,0,0,0,0,0,0,0,0,1.7541,1.7541,0,1.7561,1.7561,1.7562,1.7505,1.7503,1.7502,1.75,1.7519,1.7521,1.7523,0,0,0,0,0,0,0,0,0,0,0,0,0,1.7449,1.7451,1.7541,1.7541,1.7541,1.7561,1.7561,1.7562,1.7505,1.7503,1.7501,1.7499,1.7519,1.7521,1.7524,0,0,0,0,0,0,0,0,0,0,0,0,0,1.7481,1.7452,1.7541,1.7515,1.7513,1.7561,1.7561,1.7562,1.7506,1.7503,1.7501,1.7498,1.7518,1.7521,1.7524,1.7596,0,0,1.7534,1.7535,0,0,0,0,0,0,0,0,1.748,1.7485,1.7519,1.7517,1.7515,1.7528,1.7536,1.7573,1.7506,1.7509,1.75,1.7497,1.7524,1.7527,1.7536,1.7597,1.7598,1.7534,1.7536,1.7537,1.7538,0,0,0,0,0,0,0,1.7477,1.7483,1.7549,1.7519,1.7517,1.7502,1.7504,1.7543,1.7531,1.7508,1.7504,1.7507,1.7523,1.7533,1.7536,1.7598,1.7534,1.7537,1.7539,1.754,1.7718,1.7721,0,0,0,0,0,0,1.7479,1.7482,1.7548,1.7549,1.7491,1.7506,1.7508,1.7526,1.753,1.7528,1.751,1.7505,1.7529,1.7533,1.7537,1.7621,1.7537,1.754,1.7542,1.7715,1.7719,1.7722,0,0,0,0,0,0,1.7477,1.7485,1.7547,1.7515,1.7521,1.751,1.7532,1.7528,1.7539,1.7531,1.7529,1.7523,1.7527,1.7532,1.7582,1.7621,1.7542,1.7545,1.7712,1.7716,1.772,1.7791,0,0,0,0,0,0,1.7475,1.7485,1.7513,1.7516,1.7523,1.7593,1.7534,1.753,1.7545,1.7539,1.7543,1.7541,1.7525,1.7577,1.7585,1.7624,1.7547,1.7708,1.7714,1.7719,1.7785,1.7797,1.7807,0,0,0,0,0,1.7472,1.7532,1.7515,1.7523,1.7559,1.7596,1.76,1.7581,1.7548,1.7576,1.7571,1.7541,1.7615,1.7583,1.7591,1.7632,1.7706,1.7712,1.7718,1.778,1.7795,1.7807,0,0,0,0,0,0,1.7535,1.7532,1.7513,1.7577,1.7587,1.7586,1.7621,1.7597,1.7616,1.7609,1.7584,1.7585,1.7639,1.764,1.7604,1.7701,1.7655,1.7663,1.7699,1.7713,1.7724,1.7723,1.755,0,0,0,0,0,1.7556,1.7587,1.7583,1.7639,1.7645,1.7632,1.7647,1.7632,1.7641,1.7645,1.7643,1.7653,1.7678,1.7695,1.7718,1.7784,1.7784,1.7816,1.7827,1.7836,1.7844,1.7878,1.7892,1.7742,1.7742,1.7742,0,0,1.7601,1.7603,1.7624,1.7652,1.7658,1.769,1.7636,1.7672,1.7695,1.765,1.7697,1.7696,1.7704,1.7763,1.7788,1.7765,1.7885,1.7844,1.7852,1.7854,1.7886,1.79,1.7913,1.7747,1.7746,1.7745,0,0,1.7698,1.7703,1.7751,1.7757,1.7767,1.7757,1.7769,1.7771,1.7769,1.7815,1.7782,1.7808,1.7852,1.7859,1.7869,1.7967,1.794,1.7975,1.8033,1.8067,1.8079,1.8089,1.8124,1.8137,1.7982,1.7982,1.7982,0,1.7752,1.78,1.7778,1.7816,1.7828,1.7789,1.7835,1.7843,1.7859,1.7868,1.7842,1.7896,1.7899,1.7958,1.7981,1.799,1.8002,1.7975,1.8079,1.8089,1.8098,1.8131,1.8144,1.7986,1.7986,1.7985,1.7985,0,1.7865,1.7898,1.7935,1.7952,1.7969,1.8011,1.7994,1.8013,1.7995,1.7988,1.8035,1.8037,1.8059,1.8072,1.8055,1.8128,1.8113,1.8083,1.8036,1.8117,1.8148,1.816,1.7992,1.7991,1.799,1.7989,0,0,1.8006,1.8008,1.8022,1.8029,1.8035,1.806,1.8099,1.8121,1.8138,1.815,1.8182,1.8219,1.8191,1.8202,1.8185,1.8214,1.8291,1.8181,1.818,1.8201,1.8372,1.8395,1.841,1.8273,1.8275,1.8277,1.8371,0,1.8102,1.8171,1.8151,1.8219,1.8249,1.821,1.8244,1.8252,1.8245,1.8269,1.8261,1.8288,1.8249,1.8255,1.8283,1.8276,1.8325,1.8269,1.8303,1.8304,1.8303,1.8426,1.8451,1.8539,1.8383,1.8385,1.8386,0,1.8224,1.824,1.8312,1.8312,1.8324,1.8356,1.8373,1.8396,1.8402,1.8396,1.8407,1.8383,1.8421,1.8373,1.8424,1.8387,1.8399,1.8397,1.84,1.8403,1.8351,1.8433,1.8567,1.8581,1.8405,1.8403,1.8402,0,1.8319,1.8359,1.8407,1.8414,1.8415,1.8438,1.8439,1.8443,1.8457,1.8472,1.848,1.8499,1.851,1.8525,1.8506,1.8473,1.856,1.8511,1.8555,1.8556,1.8577,1.8576,1.8715,1.8583,1.8583,1.8583,1.8582,0,1.8429,1.8474,1.8449,1.8479,1.8528,1.8504,1.8553,1.855,1.8553,1.8581,1.8548,1.8574,1.8548,1.8572,1.8557,1.8602,1.8606,1.8602,1.8598,1.8605,1.8606,1.8614,1.8608,1.8586,1.8585,1.8585,1.8584,0,1.8544,1.8529,1.8579,1.8576,1.8576,1.8612,1.8609,1.8636,1.8626,1.8661,1.8668,1.8653,1.8679,1.8662,1.8688,1.8678,1.8737,1.8723,1.8735,1.8732,1.8777,1.8774,1.8928,1.8947,1.8801,1.8803,1.8804,0,1.8616,1.865,1.865,1.8666,1.867,1.8697,1.871,1.8687,1.8702,1.8711,1.8737,1.876,1.8777,1.882,1.8811,1.8831,1.8818,1.8871,1.8821,1.8828,1.882,1.8818,1.8822,1.8881,1.8883,1.8884,1.8886,0,1.8745,1.8735,1.8757,1.8775,1.8793,1.8806,1.8817,1.8831,1.8807,1.8826,1.8853,1.8866,1.8892,1.8915,1.8931,1.8931,1.8905,1.8901,1.8912,1.8921,1.8927,1.8925,1.8763,1.8898,1.8897,1.8896,1.8895,1.8895,1.8841,1.8869,1.8873,1.8898,1.8903,1.8913,1.8938,1.8931,1.8953,1.8972,1.8956,1.8988,1.8992,1.901,1.9014,1.9037,1.9016,1.9032,1.9037,1.9041,1.9048,1.8922,1.904,1.9039,1.9039,1.9039,1.9038,0,1.8969,1.8969,1.8991,1.9007,1.9026,1.8998,1.9008,1.9026,1.9054,1.906,1.9077,1.9107,1.9128,1.9121,1.914,1.916,1.9148,1.9166,1.9165,1.9166,1.9066,1.9054,1.9175,1.9175,1.9175,1.9175,1.9175,1.9175,1.9037,1.9083,1.9074,1.9121,1.9121,1.9151,1.9159,1.9168,1.9173,1.9207,1.9225,1.922,1.922,1.9239,1.9257,1.9254,1.9263,1.9286,1.9279,1.9186,1.9173,1.916,1.9149,1.9288,1.9288,1.9377,1.9377,1.9378]}]]